Skip Page Navigation
NASA JPL Caltech
NASA Logo - Jet Propulsion Laboratory + View the NASA Portal
+ Center for Near-Earth Object Studies
JPL Home Earth Solar System Stars & Galaxies Technology
JPL Solar System Dynamics
BODIES ORBITS EPHEMERIDES TOOLS PHYSICAL DATA DISCOVERY FAQ SITE MAP
IMPORTANT: The SSD Announcement email list is now available. Major changes are coming in the near future, including possible hostname and/or URL changes. To be notified of such changes, subscribe to this email list.

Please visit this page for more details.


JPL Small-Body Database Browser
Search: [ help ]  
324591 (2006 XF22)
Classification: Main-belt Asteroid          SPK-ID: 2324591
Ephemeris | Orbit Diagram | Orbital Elements | Mission Design | Physical Parameters | Discovery Circumstances ]

[ show orbit diagram ]
Orbital Elements at Epoch 2458600.5 (2019-Apr-27.0) TDB
Reference: JPL 11 (heliocentric ecliptic J2000)
 Element Value Uncertainty (1-sigma)   Units 
e .1277061167809725 8.0009e-08  
a 2.650829763873931 2.3378e-08 au
q 2.312302588482169 2.0819e-07 au
i 13.05008658625023 7.0602e-06 deg
node 87.48833017376829 3.6087e-05 deg
peri 22.30831102316878 4.8213e-05 deg
M 290.0782812866012 3.0969e-05 deg
tp 2458906.682791644900
(2020-Feb-27.18279164)
0.00013719 TDB
period 1576.417270919312
4.32
2.0854e-05
5.71e-08
d
yr
n .2283659324476066 3.0209e-09 deg/d
Q 2.989356939265693 2.6363e-08 au
  Orbit Determination Parameters
   # obs. used (total)      160  
   data-arc span      5669 days (15.52 yr)  
   first obs. used      2003-01-29  
   last obs. used      2018-08-07  
   planetary ephem.      DE431  
   SB-pert. ephem.      SB431-N16  
   condition code      0  
   norm. resid. RMS      .60684  
   source      ORB  
   producer      Otto Matic  
   solution date      2019-Jul-14 08:42:27  

Additional Information
 Earth MOID = 1.3342 au 
 Jupiter MOID = 2.18527 au 
 T_jup = 3.342 
[ show covariance matrix ]

Ephemeris | Orbit Diagram | Orbital Elements | Mission Design | Physical Parameters | Discovery Circumstances ]

Physical Parameter Table
Parameter Symbol Value Units Sigma Reference Notes
absolute magnitude H 16.5   n/a MPO413306  

324591 (2006 XF22)          Discovered 2006-Dec-12 by Spacewatch at Kitt Peak
Reference: 20120406/Numbers.arcLast Updated: 2012-04-09
Ephemeris | Orbit Diagram | Orbital Elements | Mission Design | Physical Parameters | Discovery Circumstances ]
ABOUT SSD CREDITS/AWARDS PRIVACY/COPYRIGHT GLOSSARY LINKS
FirstGov 2019-Oct-14 16:59 UT
(server date/time)  
NASA Home Page
Site Manager:   Ryan S. Park
Webmaster  Alan B. Chamberlin